Погода в Гороке

Папуа-Новая Гвинея     6°06′13″S   145°23′35″E
темп.,
°C
ветер,
м/с
пор.,
м/с
влажн.,
%
обл.,
%
осадки,
мм/ч
давл.,
гПа
погр.,
м
23 апреля, пт
пт2301:00+15ююз2398100 5.1 1015120
04:00+15ююз2498100 6.9 1014165
07:00+15ююз2397100 0.7 1015125
10:00+20ююв0177100 1.3 1015612
13:00+19ссв2290100 4.1 1012446
16:00+18ссв129576 7.8 1011248
19:00+16св1298100 2.0 1014107
22:00+16юв0197100 5.3 101623
24 апреля, сб
сб2401:00+15ююз1195100 0.6 101424
04:00+15юз1194100 0.6 101313
07:00+15всв0193100 0.0 101520
10:00+18всв1186100 1.2 1016420
13:00+18с1184100 1.2 1012351
16:00+17св1297100 2.8 1012129
19:00+16св1198100 2.4 101481
22:00+15в1198100 4.6 101645
25 апреля, вс
вс2501:00+15юз0098100 0.8 101521
04:00+15с0198100 1.1 101432
07:00+15всв009893 0.4 101635
10:00+17ссв129173 0.8 1016356
13:00+18ссв228981 2.4 1013566
16:00+17с239480 4.7 1012380
19:00+15ссз1210098 1.9 1015150
22:00+15с12100100 5.4 1016163
26 апреля, пн
пн2601:00+15ссв1299100 25.8 1016170
04:00+14ююз1198100 34.3 101634
07:00+14ю1197100 0.8 101739
10:00+19ссв018297 1.1 1017471
13:00+20с228267 1.3 1014804
16:00+18с228964 3.6 1013534
19:00+16ссз129886 0.8 101578
22:00+15сз119895 1.6 101748
27 апреля, вт
вт2701:00+15юз119785 1.6 101616
04:00+14ююз119758 2.3 101630
07:00+15ююз119672 0.1 101828
10:00+20ссв1180100 0.5 1017681
13:00+20ссв2280100 1.1 1014805
16:00+18с2291100 2.4 1013396
19:00+16ссз1198100 1.1 101555
22:00+15ссз1198100 2.4 101720